Time,TemperatureF,DewpointF,PressureIn,WindDirection,WindDirectionDegrees,WindSpeedMPH,WindSpeedGustMPH,Humidity,HourlyPrecipIn,Conditions,Clouds,dailyrainin,SolarRadiationWatts/m^2,SoftwareType,DateUTC
2013-06-15 00:01:00,66.6,60.9,30.01,ENE,73,0.0,0.0,82,0.00,,,0.00,0,Wunderground v.1.15,2013-06-15 04:01:00,
2013-06-15 00:06:00,66.4,61.1,30.01,ENE,73,0.0,0.0,83,0.00,,,0.00,0,Wunderground v.1.15,2013-06-15 04:06:00,
2013-06-15 00:11:00,66.1,60.8,30.01,ENE,73,0.0,0.0,83,0.00,,,0.00,0,Wunderground v.1.15,2013-06-15 04:11:00,
2013-06-15 00:16:00,65.9,60.9,30.01,ENE,73,0.0,0.0,84,0.00,,,0.00,0,Wunderground v.1.15,2013-06-15 04:16:00,
2013-06-15 00:21:00,65.9,60.9,30.01,ENE,73,0.0,0.0,84,0.00,,,0.00,0,Wunderground v.1.15,2013-06-15 04:21:00,
2013-06-15 00:26:00,65.9,60.6,30.01,ENE,73,0.0,0.0,83,0.00,,,0.00,0,Wunderground v.1.15,2013-06-15 04:26:00,
2013-06-15 00:31:00,65.7,60.7,30.01,ENE,73,0.0,0.0,84,0.00,,,0.00,0,Wunderground v.1.15,2013-06-15 04:31:00,
2013-06-15 00:36:00,65.4,60.8,30.01,ENE,73,0.0,0.0,85,0.00,,,0.00,0,Wunderground v.1.15,2013-06-15 04:36:00,
2013-06-15 00:41:00,65.3,60.7,30.01,ENE,73,0.0,0.0,85,0.00,,,0.00,0,Wunderground v.1.15,2013-06-15 04:41:00,
2013-06-15 00:46:00,65.3,60.7,30.01,ENE,73,0.0,0.0,85,0.00,,,0.00,0,Wunderground v.1.15,2013-06-15 04:46:00,
2013-06-15 00:51:00,65.3,60.7,30.01,ENE,73,0.0,0.0,85,0.00,,,0.00,0,Wunderground v.1.15,2013-06-15 04:51:00,
2013-06-15 00:56:00,65.4,60.8,30.01,ENE,73,0.0,0.0,85,0.00,,,0.00,0,Wunderground v.1.15,2013-06-15 04:56:00,
2013-06-15 01:01:00,65.3,60.3,30.01,ENE,73,0.0,0.0,84,0.00,,,0.00,0,Wunderground v.1.15,2013-06-15 05:01:00,
2013-06-15 01:06:00,65.2,60.2,30.02,ENE,73,0.0,0.0,84,0.00,,,0.00,0,Wunderground v.1.15,2013-06-15 05:06:00,
2013-06-15 01:11:00,65.2,60.2,30.02,ENE,73,0.0,0.0,84,0.00,,,0.00,0,Wunderground v.1.15,2013-06-15 05:11:00,
2013-06-15 01:16:00,65.0,60.0,30.02,ENE,73,0.0,0.0,84,0.00,,,0.00,0,Wunderground v.1.15,2013-06-15 05:16:00,
2013-06-15 01:21:00,64.9,60.3,30.02,ENE,73,0.0,0.0,85,0.00,,,0.00,0,Wunderground v.1.15,2013-06-15 05:21:00,
2013-06-15 01:26:00,64.7,60.1,30.02,ENE,73,0.0,0.0,85,0.00,,,0.00,0,Wunderground v.1.15,2013-06-15 05:26:00,
2013-06-15 01:31:00,64.5,60.2,30.02,ENE,73,0.0,0.0,86,0.00,,,0.00,0,Wunderground v.1.15,2013-06-15 05:31:00,
2013-06-15 01:36:00,64.3,60.0,30.03,ENE,73,0.0,0.0,86,0.00,,,0.00,0,Wunderground v.1.15,2013-06-15 05:36:00,
2013-06-15 01:41:00,64.0,60.1,30.03,ENE,73,0.0,0.0,87,0.00,,,0.00,0,Wunderground v.1.15,2013-06-15 05:41:00,
2013-06-15 01:46:00,63.7,60.1,30.03,ENE,73,0.0,0.0,88,0.00,,,0.00,0,Wunderground v.1.15,2013-06-15 05:46:00,
2013-06-15 01:51:00,63.5,59.9,30.02,ENE,73,0.0,0.0,88,0.00,,,0.00,0,Wunderground v.1.15,2013-06-15 05:51:00,
2013-06-15 01:56:00,63.5,59.6,30.02,ENE,73,0.0,0.0,87,0.00,,,0.00,0,Wunderground v.1.15,2013-06-15 05:56:00,
2013-06-15 02:00:00,63.3,59.4,30.02,ENE,73,0.0,0.0,87,0.00,,,0.00,0,Wunderground v.1.15,2013-06-15 06:00:00,
2013-06-15 02:05:00,63.0,59.4,30.02,ENE,73,0.0,0.0,88,0.00,,,0.00,0,Wunderground v.1.15,2013-06-15 06:05:00,
2013-06-15 02:10:00,62.8,59.2,30.01,ENE,73,0.0,0.0,88,0.00,,,0.00,0,Wunderground v.1.15,2013-06-15 06:10:00,
2013-06-15 02:15:00,62.9,59.3,30.02,ENE,73,0.0,0.0,88,0.00,,,0.00,0,Wunderground v.1.15,2013-06-15 06:15:00,
2013-06-15 02:20:00,62.8,59.2,30.01,ENE,73,0.0,0.0,88,0.00,,,0.00,0,Wunderground v.1.15,2013-06-15 06:20:00,
2013-06-15 02:25:00,62.9,59.3,30.01,ENE,73,0.0,0.0,88,0.00,,,0.00,0,Wunderground v.1.15,2013-06-15 06:25:00,
2013-06-15 02:30:00,62.9,59.3,30.02,ENE,73,0.0,0.0,88,0.00,,,0.00,0,Wunderground v.1.15,2013-06-15 06:30:00,
2013-06-15 02:35:00,62.9,59.3,30.02,ENE,73,0.0,0.0,88,0.00,,,0.00,0,Wunderground v.1.15,2013-06-15 06:35:00,
2013-06-15 02:40:00,62.9,59.3,30.02,ENE,73,0.0,0.0,88,0.00,,,0.00,0,Wunderground v.1.15,2013-06-15 06:40:00,
2013-06-15 02:45:00,62.9,59.3,30.02,ENE,73,0.0,0.0,88,0.00,,,0.00,0,Wunderground v.1.15,2013-06-15 06:45:00,
2013-06-15 02:50:00,63.1,59.5,30.02,ENE,73,0.0,0.0,88,0.00,,,0.00,0,Wunderground v.1.15,2013-06-15 06:50:00,
2013-06-15 02:55:00,63.2,59.3,30.02,ENE,73,0.0,0.0,87,0.00,,,0.00,0,Wunderground v.1.15,2013-06-15 06:55:00,
2013-06-15 02:56:00,63.2,59.3,30.02,ENE,73,0.0,0.0,87,0.00,,,0.00,0,Wunderground v.1.15,2013-06-15 06:56:00,
2013-06-15 03:01:00,62.8,59.2,30.01,ENE,73,0.0,0.0,88,0.00,,,0.00,0,Wunderground v.1.15,2013-06-15 07:01:00,
2013-06-15 03:05:00,62.6,59.3,30.01,ENE,73,0.0,0.0,89,0.00,,,0.00,0,Wunderground v.1.15,2013-06-15 07:05:00,
2013-06-15 03:11:00,62.4,59.1,30.01,ENE,73,0.0,0.0,89,0.00,,,0.00,0,Wunderground v.1.15,2013-06-15 07:11:00,
2013-06-15 03:15:00,62.4,59.1,30.02,ENE,73,0.0,0.0,89,0.00,,,0.00,0,Wunderground v.1.15,2013-06-15 07:15:00,
2013-06-15 03:21:00,62.2,58.9,30.02,ENE,73,0.0,0.0,89,0.00,,,0.00,0,Wunderground v.1.15,2013-06-15 07:21:00,
2013-06-15 03:26:00,62.0,58.7,30.02,ENE,73,0.0,0.0,89,0.00,,,0.00,0,Wunderground v.1.15,2013-06-15 07:26:00,
2013-06-15 03:31:00,61.9,58.6,30.03,ENE,73,0.0,0.0,89,0.00,,,0.00,0,Wunderground v.1.15,2013-06-15 07:31:00,
2013-06-15 03:36:00,61.9,58.6,30.03,ENE,73,0.0,0.0,89,0.00,,,0.00,0,Wunderground v.1.15,2013-06-15 07:36:00,
2013-06-15 03:41:00,61.9,58.6,30.04,ENE,73,0.0,0.0,89,0.00,,,0.00,0,Wunderground v.1.15,2013-06-15 07:41:00,
2013-06-15 03:46:00,61.7,58.4,30.04,ENE,73,0.0,0.0,89,0.00,,,0.00,0,Wunderground v.1.15,2013-06-15 07:46:00,
2013-06-15 03:51:00,61.4,58.4,30.04,ENE,73,0.0,0.0,90,0.00,,,0.00,0,Wunderground v.1.15,2013-06-15 07:51:00,
2013-06-15 03:56:00,61.3,58.3,30.04,ENE,73,0.0,0.0,90,0.00,,,0.00,0,Wunderground v.1.15,2013-06-15 07:56:00,
2013-06-15 04:01:00,61.3,58.3,30.04,ENE,73,0.0,0.0,90,0.00,,,0.00,0,Wunderground v.1.15,2013-06-15 08:01:00,
2013-06-15 04:06:00,61.1,58.1,30.04,ENE,73,0.0,0.0,90,0.00,,,0.00,0,Wunderground v.1.15,2013-06-15 08:06:00,
2013-06-15 04:11:00,61.0,58.0,30.04,ENE,73,0.0,0.0,90,0.00,,,0.00,0,Wunderground v.1.15,2013-06-15 08:11:00,
2013-06-15 04:16:00,60.8,57.8,30.05,ENE,73,0.0,0.0,90,0.00,,,0.00,0,Wunderground v.1.15,2013-06-15 08:16:00,
2013-06-15 04:21:00,61.1,58.5,30.05,ENE,73,0.0,0.0,91,0.00,,,0.00,0,Wunderground v.1.15,2013-06-15 08:21:00,
2013-06-15 04:26:00,61.0,58.0,30.04,ENE,73,0.0,0.0,90,0.00,,,0.00,0,Wunderground v.1.15,2013-06-15 08:26:00,
2013-06-15 04:31:00,60.9,57.9,30.04,ENE,73,0.0,0.0,90,0.00,,,0.00,0,Wunderground v.1.15,2013-06-15 08:31:00,
2013-06-15 04:36:00,60.8,57.8,30.05,ENE,73,0.0,0.0,90,0.00,,,0.00,0,Wunderground v.1.15,2013-06-15 08:36:00,
2013-06-15 04:41:00,60.8,57.8,30.04,ENE,73,0.0,0.0,90,0.00,,,0.00,0,Wunderground v.1.15,2013-06-15 08:41:00,
2013-06-15 04:46:00,60.8,57.8,30.05,ENE,73,0.0,0.0,90,0.00,,,0.00,0,Wunderground v.1.15,2013-06-15 08:46:00,
2013-06-15 04:51:00,60.7,57.7,30.05,ENE,73,0.0,0.0,90,0.00,,,0.00,0,Wunderground v.1.15,2013-06-15 08:51:00,
2013-06-15 04:56:00,60.7,58.1,30.05,ENE,73,0.0,0.0,91,0.00,,,0.00,0,Wunderground v.1.15,2013-06-15 08:56:00,
2013-06-15 05:01:00,60.6,58.0,30.05,ENE,73,0.0,0.0,91,0.00,,,0.00,0,Wunderground v.1.15,2013-06-15 09:01:00,
2013-06-15 05:06:00,60.6,58.0,30.05,ENE,73,0.0,0.0,91,0.00,,,0.00,0,Wunderground v.1.15,2013-06-15 09:06:00,
2013-06-15 05:11:00,60.5,57.9,30.05,ENE,73,0.0,0.0,91,0.00,,,0.00,0,Wunderground v.1.15,2013-06-15 09:11:00,
2013-06-15 05:16:00,60.5,57.9,30.05,ENE,73,0.0,0.0,91,0.00,,,0.00,0,Wunderground v.1.15,2013-06-15 09:16:00,
2013-06-15 05:21:00,60.3,57.7,30.05,ENE,73,0.0,0.0,91,0.00,,,0.00,0,Wunderground v.1.15,2013-06-15 09:21:00,
2013-06-15 05:26:00,60.2,57.6,30.05,ENE,73,0.0,0.0,91,0.00,,,0.00,0,Wunderground v.1.15,2013-06-15 09:26:00,
2013-06-15 05:31:00,60.0,57.4,30.05,ENE,73,0.0,0.0,91,0.00,,,0.00,0,Wunderground v.1.15,2013-06-15 09:31:00,
2013-06-15 05:36:00,60.0,57.4,30.05,ENE,73,0.0,0.0,91,0.00,,,0.00,0,Wunderground v.1.15,2013-06-15 09:36:00,
2013-06-15 05:41:00,60.1,57.8,30.05,ENE,73,0.0,0.0,92,0.00,,,0.00,0,Wunderground v.1.15,2013-06-15 09:41:00,
2013-06-15 05:46:00,59.9,57.3,30.05,ENE,73,0.0,0.0,91,0.00,,,0.00,0,Wunderground v.1.15,2013-06-15 09:46:00,
2013-06-15 05:51:00,59.6,57.3,30.05,ENE,73,0.0,0.0,92,0.00,,,0.00,0,Wunderground v.1.15,2013-06-15 09:51:00,
2013-06-15 05:56:00,59.8,57.8,30.05,ENE,73,0.0,0.0,93,0.00,,,0.00,0,Wunderground v.1.15,2013-06-15 09:56:00,
2013-06-15 06:01:00,59.9,57.6,30.05,ENE,73,0.0,0.0,92,0.00,,,0.00,0,Wunderground v.1.15,2013-06-15 10:01:00,
2013-06-15 06:06:00,59.8,57.5,30.05,North,5,0.0,0.0,92,0.00,,,0.00,0,Wunderground v.1.15,2013-06-15 10:06:00,
2013-06-15 06:11:00,59.6,57.3,30.05,North,5,0.0,0.0,92,0.00,,,0.00,0,Wunderground v.1.15,2013-06-15 10:11:00,
2013-06-15 06:16:00,59.5,57.2,30.05,North,5,0.0,0.0,92,0.00,,,0.00,0,Wunderground v.1.15,2013-06-15 10:16:00,
2013-06-15 06:21:00,59.5,57.2,30.05,North,5,0.0,0.0,92,0.00,,,0.00,5,Wunderground v.1.15,2013-06-15 10:21:00,
2013-06-15 06:26:00,59.5,57.2,30.05,North,5,0.0,0.0,92,0.00,,,0.00,9,Wunderground v.1.15,2013-06-15 10:26:00,
2013-06-15 06:31:00,59.4,57.1,30.06,North,5,0.0,0.0,92,0.00,,,0.00,14,Wunderground v.1.15,2013-06-15 10:31:00,
2013-06-15 06:36:00,59.4,57.1,30.06,North,5,0.0,0.0,92,0.00,,,0.00,19,Wunderground v.1.15,2013-06-15 10:36:00,
2013-06-15 06:41:00,59.5,57.5,30.06,North,5,0.0,0.0,93,0.00,,,0.00,26,Wunderground v.1.15,2013-06-15 10:41:00,
2013-06-15 06:46:00,59.9,57.9,30.06,North,5,0.0,0.0,93,0.00,,,0.00,35,Wunderground v.1.15,2013-06-15 10:46:00,
2013-06-15 06:51:00,60.2,57.9,30.06,SW,216,0.0,0.0,92,0.00,,,0.00,39,Wunderground v.1.15,2013-06-15 10:51:00,
2013-06-15 06:56:00,60.1,57.5,30.06,WSW,244,0.0,0.0,91,0.00,,,0.00,44,Wunderground v.1.15,2013-06-15 10:56:00,
2013-06-15 07:01:00,60.1,57.8,30.06,WSW,244,0.0,0.0,92,0.00,,,0.00,62,Wunderground v.1.15,2013-06-15 11:01:00,
2013-06-15 07:06:00,60.6,58.0,30.06,WSW,244,0.0,0.0,91,0.00,,,0.00,76,Wunderground v.1.15,2013-06-15 11:06:00,
2013-06-15 07:11:00,61.2,58.6,30.07,WSW,244,0.0,0.0,91,0.00,,,0.00,90,Wunderground v.1.15,2013-06-15 11:11:00,
2013-06-15 07:16:00,62.2,58.9,30.07,WSW,244,0.0,0.0,89,0.00,,,0.00,107,Wunderground v.1.15,2013-06-15 11:16:00,
2013-06-15 07:21:00,62.4,59.1,30.07,WSW,244,0.0,0.0,89,0.00,,,0.00,127,Wunderground v.1.15,2013-06-15 11:21:00,
2013-06-15 07:26:00,62.5,59.2,30.07,WSW,244,0.0,0.0,89,0.00,,,0.00,144,Wunderground v.1.15,2013-06-15 11:26:00,
2013-06-15 07:31:00,63.4,59.8,30.08,WSW,244,0.0,0.0,88,0.00,,,0.00,149,Wunderground v.1.15,2013-06-15 11:31:00,
2013-06-15 07:36:00,64.3,60.0,30.08,WSW,244,0.0,0.0,86,0.00,,,0.00,163,Wunderground v.1.15,2013-06-15 11:36:00,
2013-06-15 07:42:00,64.0,59.7,30.08,NW,315,0.0,0.0,86,0.00,,,0.00,176,Wunderground v.1.15,2013-06-15 11:42:00,
2013-06-15 07:47:00,64.1,60.2,30.09,ENE,76,0.0,0.0,87,0.00,,,0.00,202,Wunderground v.1.15,2013-06-15 11:47:00,
2013-06-15 07:52:00,64.6,60.6,30.09,ENE,76,0.0,0.0,87,0.00,,,0.00,216,Wunderground v.1.15,2013-06-15 11:52:00,
2013-06-15 07:57:00,65.7,60.7,30.09,ENE,76,0.0,0.0,84,0.00,,,0.00,225,Wunderground v.1.15,2013-06-15 11:57:00,
2013-06-15 08:02:00,65.6,61.0,30.08,ENE,76,0.0,0.0,85,0.00,,,0.00,241,Wunderground v.1.15,2013-06-15 12:02:00,
2013-06-15 08:07:00,66.9,62.2,30.08,ENE,76,0.0,0.0,85,0.00,,,0.00,255,Wunderground v.1.15,2013-06-15 12:07:00,
2013-06-15 08:12:00,67.1,61.4,30.08,ESE,113,0.0,0.0,82,0.00,,,0.00,274,Wunderground v.1.15,2013-06-15 12:12:00,
2013-06-15 08:17:00,67.9,62.5,30.08,ESE,113,0.0,0.0,83,0.00,,,0.00,294,Wunderground v.1.15,2013-06-15 12:17:00,
2013-06-15 08:22:00,68.3,62.2,30.08,SE,135,0.0,0.0,81,0.00,,,0.00,313,Wunderground v.1.15,2013-06-15 12:22:00,
2013-06-15 08:27:00,67.8,61.8,30.08,SE,135,0.0,0.0,81,0.00,,,0.00,327,Wunderground v.1.15,2013-06-15 12:27:00,
2013-06-15 08:32:00,68.9,62.8,30.08,SE,135,0.0,0.0,81,0.00,,,0.00,339,Wunderground v.1.15,2013-06-15 12:32:00,
2013-06-15 08:37:00,69.9,62.7,30.08,SSW,206,0.0,0.0,78,0.00,,,0.00,357,Wunderground v.1.15,2013-06-15 12:37:00,
2013-06-15 08:42:00,70.1,62.2,30.08,SSW,197,0.0,0.0,76,0.00,,,0.00,373,Wunderground v.1.15,2013-06-15 12:42:00,
2013-06-15 08:47:00,70.3,62.0,30.08,SSW,211,0.0,0.0,75,0.00,,,0.00,388,Wunderground v.1.15,2013-06-15 12:47:00,
2013-06-15 08:52:00,71.0,62.3,30.09,SSW,205,0.0,0.0,74,0.00,,,0.00,404,Wunderground v.1.15,2013-06-15 12:52:00,
2013-06-15 08:57:00,71.0,62.3,30.09,SSW,202,0.0,0.0,74,0.00,,,0.00,418,Wunderground v.1.15,2013-06-15 12:57:00,
2013-06-15 09:02:00,71.9,62.0,30.09,SSW,202,0.0,0.0,71,0.00,,,0.00,436,Wunderground v.1.15,2013-06-15 13:02:00,
2013-06-15 09:07:00,72.1,62.6,30.09,SW,228,0.0,0.0,72,0.00,,,0.00,454,Wunderground v.1.15,2013-06-15 13:07:00,
2013-06-15 09:12:00,72.7,62.3,30.09,SW,219,0.0,0.0,70,0.00,,,0.00,468,Wunderground v.1.15,2013-06-15 13:12:00,
2013-06-15 09:17:00,72.9,63.7,30.09,SSW,211,0.0,0.0,73,0.00,,,0.00,485,Wunderground v.1.15,2013-06-15 13:17:00,
2013-06-15 09:22:00,73.6,62.8,30.09,WSW,254,0.0,0.0,69,0.00,,,0.00,501,Wunderground v.1.15,2013-06-15 13:22:00,
2013-06-15 09:27:00,74.0,63.2,30.08,SW,227,0.0,0.0,69,0.00,,,0.00,519,Wunderground v.1.15,2013-06-15 13:27:00,
2013-06-15 09:32:00,74.6,62.5,30.08,WSW,244,0.0,0.0,66,0.00,,,0.00,534,Wunderground v.1.15,2013-06-15 13:32:00,
2013-06-15 09:37:00,74.2,63.8,30.08,WSW,252,0.0,0.0,70,0.00,,,0.00,548,Wunderground v.1.15,2013-06-15 13:37:00,
2013-06-15 09:42:00,74.2,64.2,30.09,South,187,0.0,0.0,71,0.00,,,0.00,564,Wunderground v.1.15,2013-06-15 13:42:00,
2013-06-15 09:47:00,75.2,63.5,30.08,SSW,198,0.0,0.0,67,0.00,,,0.00,582,Wunderground v.1.15,2013-06-15 13:47:00,
2013-06-15 09:52:00,75.6,64.3,30.09,SSW,198,0.0,0.0,68,0.00,,,0.00,594,Wunderground v.1.15,2013-06-15 13:52:00,
2013-06-15 09:57:00,76.5,63.9,30.08,SW,219,0.0,0.0,65,0.00,,,0.00,610,Wunderground v.1.15,2013-06-15 13:57:00,
2013-06-15 10:02:00,76.6,64.4,30.08,SW,232,0.0,0.0,66,0.00,,,0.00,626,Wunderground v.1.15,2013-06-15 14:02:00,
2013-06-15 10:07:00,76.2,64.0,30.08,SSW,208,0.0,0.0,66,0.00,,,0.00,645,Wunderground v.1.15,2013-06-15 14:07:00,
2013-06-15 10:12:00,76.9,64.2,30.08,WSW,254,0.0,0.0,65,0.00,,,0.00,656,Wunderground v.1.15,2013-06-15 14:12:00,
2013-06-15 10:17:00,77.5,63.0,30.08,WSW,254,0.0,0.0,61,0.00,,,0.00,680,Wunderground v.1.15,2013-06-15 14:17:00,
2013-06-15 10:22:00,77.7,64.1,30.08,SW,228,0.0,0.0,63,0.00,,,0.00,703,Wunderground v.1.15,2013-06-15 14:22:00,
2013-06-15 10:27:00,78.4,62.9,30.08,WSW,254,0.0,0.0,59,0.00,,,0.00,650,Wunderground v.1.15,2013-06-15 14:27:00,
2013-06-15 10:32:00,78.2,63.6,30.08,WSW,253,0.0,0.0,61,0.00,,,0.00,698,Wunderground v.1.15,2013-06-15 14:32:00,
2013-06-15 10:37:00,78.7,62.7,30.08,West,267,0.0,0.0,58,0.00,,,0.00,703,Wunderground v.1.15,2013-06-15 14:37:00,
2013-06-15 10:42:00,79.1,64.0,30.08,West,259,0.0,0.0,60,0.00,,,0.00,722,Wunderground v.1.15,2013-06-15 14:42:00,
2013-06-15 10:47:00,79.8,64.2,30.07,SSW,202,0.0,0.0,59,0.00,,,0.00,724,Wunderground v.1.15,2013-06-15 14:47:00,
2013-06-15 10:52:00,79.4,64.3,30.07,West,259,0.0,0.0,60,0.00,,,0.00,733,Wunderground v.1.15,2013-06-15 14:52:00,
2013-06-15 10:57:00,79.5,62.9,30.07,West,261,0.0,0.0,57,0.00,,,0.00,745,Wunderground v.1.15,2013-06-15 14:57:00,
2013-06-15 11:02:00,80.3,62.7,30.07,SW,220,0.0,0.0,55,0.00,,,0.00,791,Wunderground v.1.15,2013-06-15 15:02:00,
2013-06-15 11:07:00,80.1,61.4,30.08,WNW,289,0.0,0.0,53,0.00,,,0.00,805,Wunderground v.1.15,2013-06-15 15:07:00,
2013-06-15 11:12:00,80.5,63.4,30.08,NW,324,0.0,0.0,56,0.00,,,0.00,817,Wunderground v.1.15,2013-06-15 15:12:00,
2013-06-15 11:17:00,80.6,61.9,30.08,WNW,299,0.0,0.0,53,0.00,,,0.00,823,Wunderground v.1.15,2013-06-15 15:17:00,
2013-06-15 11:22:00,81.1,62.3,30.07,NW,315,0.0,0.0,53,0.00,,,0.00,819,Wunderground v.1.15,2013-06-15 15:22:00,
2013-06-15 11:27:00,81.4,63.7,30.08,WSW,246,0.0,0.0,55,0.00,,,0.00,838,Wunderground v.1.15,2013-06-15 15:27:00,
2013-06-15 11:32:00,81.3,60.3,30.08,WNW,283,0.0,0.0,49,0.00,,,0.00,863,Wunderground v.1.15,2013-06-15 15:32:00,
2013-06-15 11:37:00,81.6,60.0,30.07,WSW,244,0.0,0.0,48,0.00,,,0.00,870,Wunderground v.1.15,2013-06-15 15:37:00,
2013-06-15 11:42:00,80.4,60.6,30.07,SSW,201,0.0,0.0,51,0.00,,,0.00,877,Wunderground v.1.15,2013-06-15 15:42:00,
2013-06-15 11:47:00,82.5,60.8,30.07,WSW,246,0.0,0.0,48,0.00,,,0.00,875,Wunderground v.1.15,2013-06-15 15:47:00,
2013-06-15 11:52:00,81.8,61.9,30.07,SSW,213,0.0,0.0,51,0.00,,,0.00,909,Wunderground v.1.15,2013-06-15 15:52:00,
2013-06-15 11:57:00,81.8,60.2,30.07,WNW,286,0.0,0.0,48,0.00,,,0.00,905,Wunderground v.1.15,2013-06-15 15:57:00,
2013-06-15 12:02:00,82.1,61.6,30.07,West,277,0.0,0.0,50,0.00,,,0.00,916,Wunderground v.1.15,2013-06-15 16:02:00,
2013-06-15 12:07:00,83.5,62.3,30.07,South,191,0.0,0.0,49,0.00,,,0.00,916,Wunderground v.1.15,2013-06-15 16:07:00,
2013-06-15 12:12:00,83.2,59.0,30.07,West,275,0.0,0.0,44,0.00,,,0.00,916,Wunderground v.1.15,2013-06-15 16:12:00,
2013-06-15 12:17:00,82.7,59.2,30.06,SW,229,0.0,0.0,45,0.00,,,0.00,925,Wunderground v.1.15,2013-06-15 16:17:00,
2013-06-15 12:22:00,82.7,59.2,30.06,NW,313,4.0,10.0,45,0.00,,,0.00,932,Wunderground v.1.15,2013-06-15 16:22:00,
2013-06-15 12:27:00,82.3,58.2,30.06,SSE,165,0.0,10.0,44,0.00,,,0.00,953,Wunderground v.1.15,2013-06-15 16:27:00,
2013-06-15 12:32:00,81.5,59.9,30.06,West,262,4.0,6.0,48,0.00,,,0.00,960,Wunderground v.1.15,2013-06-15 16:32:00,
2013-06-15 12:37:00,82.4,61.3,30.05,WSW,254,6.0,6.0,49,0.00,,,0.00,954,Wunderground v.1.15,2013-06-15 16:37:00,
2013-06-15 12:42:00,83.0,59.5,30.05,West,281,1.0,6.0,45,0.00,,,0.00,944,Wunderground v.1.15,2013-06-15 16:42:00,
2013-06-15 12:47:00,81.7,60.1,30.05,SE,124,3.0,6.0,48,0.00,,,0.00,947,Wunderground v.1.15,2013-06-15 16:47:00,
2013-06-15 12:52:00,81.2,60.2,30.04,WSW,256,2.0,8.0,49,0.00,,,0.00,947,Wunderground v.1.15,2013-06-15 16:52:00,
2013-06-15 12:57:00,82.7,59.8,30.04,WNW,286,2.0,9.0,46,0.00,,,0.00,958,Wunderground v.1.15,2013-06-15 16:57:00,
2013-06-15 13:02:00,83.6,59.4,30.04,SW,228,2.0,7.0,44,0.00,,,0.00,956,Wunderground v.1.15,2013-06-15 17:02:00,
2013-06-15 13:08:00,82.8,60.5,30.04,South,178,1.0,8.0,47,0.00,,,0.00,958,Wunderground v.1.15,2013-06-15 17:08:00,
2013-06-15 13:13:00,81.4,58.6,30.03,SSW,207,0.0,5.0,46,0.00,,,0.00,965,Wunderground v.1.15,2013-06-15 17:13:00,
2013-06-15 13:18:00,83.2,60.3,30.03,SW,235,3.0,7.0,46,0.00,,,0.00,977,Wunderground v.1.15,2013-06-15 17:18:00,
2013-06-15 13:23:00,83.8,58.9,30.03,WSW,258,0.0,8.0,43,0.00,,,0.00,962,Wunderground v.1.15,2013-06-15 17:23:00,
2013-06-15 13:28:00,84.3,60.0,30.02,WSW,241,2.0,9.0,44,0.00,,,0.00,962,Wunderground v.1.15,2013-06-15 17:28:00,
2013-06-15 13:33:00,84.3,62.5,30.02,WSW,240,2.0,7.0,48,0.00,,,0.00,972,Wunderground v.1.15,2013-06-15 17:33:00,
2013-06-15 13:38:00,84.1,61.1,30.02,SSW,200,9.0,13.0,46,0.00,,,0.00,969,Wunderground v.1.15,2013-06-15 17:38:00,
2013-06-15 13:43:00,83.8,59.6,30.02,South,180,2.0,11.0,44,0.00,,,0.00,902,Wunderground v.1.15,2013-06-15 17:43:00,
2013-06-15 13:48:00,82.2,61.1,30.02,WSW,239,5.0,6.0,49,0.00,,,0.00,976,Wunderground v.1.15,2013-06-15 17:48:00,
2013-06-15 13:53:00,83.5,59.9,30.01,West,276,6.0,12.0,45,0.00,,,0.00,962,Wunderground v.1.15,2013-06-15 17:53:00,
2013-06-15 13:58:00,83.6,61.8,30.01,SSE,161,2.0,6.0,48,0.00,,,0.00,958,Wunderground v.1.15,2013-06-15 17:58:00,
2013-06-15 14:03:00,83.9,59.7,30.01,SSW,211,8.0,11.0,44,0.00,,,0.00,967,Wunderground v.1.15,2013-06-15 18:03:00,
2013-06-15 14:08:00,83.5,59.3,30.01,SSE,150,2.0,5.0,44,0.00,,,0.00,997,Wunderground v.1.15,2013-06-15 18:08:00,
2013-06-15 14:13:00,83.4,59.8,30.01,SW,229,6.0,6.0,45,0.00,,,0.00,958,Wunderground v.1.15,2013-06-15 18:13:00,
2013-06-15 14:18:00,85.0,61.3,30.01,West,273,3.0,4.0,45,0.00,,,0.00,967,Wunderground v.1.15,2013-06-15 18:18:00,
2013-06-15 14:23:00,85.0,60.0,30.01,South,177,4.0,10.0,43,0.00,,,0.00,944,Wunderground v.1.15,2013-06-15 18:23:00,
2013-06-15 14:28:00,84.8,60.5,30.00,SSW,198,7.0,7.0,44,0.00,,,0.00,942,Wunderground v.1.15,2013-06-15 18:28:00,
2013-06-15 14:33:00,84.2,59.9,30.01,SW,222,9.0,13.0,44,0.00,,,0.00,940,Wunderground v.1.15,2013-06-15 18:33:00,
2013-06-15 14:38:00,84.9,59.9,30.00,SW,232,7.0,10.0,43,0.00,,,0.00,923,Wunderground v.1.15,2013-06-15 18:38:00,
2013-06-15 14:43:00,84.2,59.9,30.00,South,179,2.0,10.0,44,0.00,,,0.00,916,Wunderground v.1.15,2013-06-15 18:43:00,
2013-06-15 14:48:00,83.8,62.0,29.99,WNW,290,2.0,5.0,48,0.00,,,0.00,904,Wunderground v.1.15,2013-06-15 18:48:00,
2013-06-15 14:53:00,84.0,61.0,29.99,South,169,2.0,11.0,46,0.00,,,0.00,904,Wunderground v.1.15,2013-06-15 18:53:00,
2013-06-15 14:58:00,85.0,61.3,30.00,WSW,242,5.0,7.0,45,0.00,,,0.00,882,Wunderground v.1.15,2013-06-15 18:58:00,
2013-06-15 15:03:00,84.3,62.5,30.01,SW,232,10.0,10.0,48,0.00,,,0.00,905,Wunderground v.1.15,2013-06-15 19:03:00,
2013-06-15 15:08:00,85.4,61.0,30.00,SSW,212,6.0,6.0,44,0.00,,,0.00,886,Wunderground v.1.15,2013-06-15 19:08:00,
2013-06-15 15:13:00,85.7,60.0,30.00,West,268,7.0,12.0,42,0.00,,,0.00,884,Wunderground v.1.15,2013-06-15 19:13:00,
2013-06-15 15:18:00,86.0,59.6,30.00,West,263,10.0,10.0,41,0.00,,,0.00,870,Wunderground v.1.15,2013-06-15 19:18:00,
2013-06-15 15:23:00,86.0,60.2,30.00,WSW,256,6.0,11.0,42,0.00,,,0.00,865,Wunderground v.1.15,2013-06-15 19:23:00,
2013-06-15 15:28:00,86.0,58.2,30.00,SW,215,5.0,7.0,39,0.00,,,0.00,858,Wunderground v.1.15,2013-06-15 19:28:00,
2013-06-15 15:33:00,85.4,61.0,30.00,West,261,7.0,9.0,44,0.00,,,0.00,849,Wunderground v.1.15,2013-06-15 19:33:00,
2013-06-15 15:38:00,85.6,59.2,30.00,SSW,196,4.0,10.0,41,0.00,,,0.00,835,Wunderground v.1.15,2013-06-15 19:38:00,
2013-06-15 15:43:00,85.6,60.5,30.00,WSW,257,2.0,10.0,43,0.00,,,0.00,830,Wunderground v.1.15,2013-06-15 19:43:00,
2013-06-15 15:48:00,86.0,60.2,30.00,WSW,251,6.0,6.0,42,0.00,,,0.00,816,Wunderground v.1.15,2013-06-15 19:48:00,
2013-06-15 15:53:00,86.2,61.1,30.00,WNW,294,1.0,7.0,43,0.00,,,0.00,809,Wunderground v.1.15,2013-06-15 19:53:00,
2013-06-15 15:58:00,85.7,60.6,30.00,South,191,3.0,4.0,43,0.00,,,0.00,789,Wunderground v.1.15,2013-06-15 19:58:00,
2013-06-15 16:03:00,85.6,60.5,30.00,South,175,5.0,9.0,43,0.00,,,0.00,761,Wunderground v.1.15,2013-06-15 20:03:00,
2013-06-15 16:08:00,85.7,60.0,29.99,SW,229,5.0,6.0,42,0.00,,,0.00,705,Wunderground v.1.15,2013-06-15 20:08:00,
2013-06-15 16:13:00,86.5,60.7,29.99,South,182,4.0,9.0,42,0.00,,,0.00,705,Wunderground v.1.15,2013-06-15 20:13:00,
2013-06-15 16:18:00,86.5,59.3,29.99,West,261,4.0,5.0,40,0.00,,,0.00,779,Wunderground v.1.15,2013-06-15 20:18:00,
2013-06-15 16:23:00,86.3,60.5,29.99,SW,236,9.0,11.0,42,0.00,,,0.00,726,Wunderground v.1.15,2013-06-15 20:23:00,
2013-06-15 16:28:00,86.2,60.4,29.99,WSW,254,2.0,6.0,42,0.00,,,0.00,733,Wunderground v.1.15,2013-06-15 20:28:00,
2013-06-15 16:33:00,86.2,59.7,29.99,WSW,244,10.0,11.0,41,0.00,,,0.00,724,Wunderground v.1.15,2013-06-15 20:33:00,
2013-06-15 16:38:00,85.8,59.4,29.99,SW,215,6.0,8.0,41,0.00,,,0.00,712,Wunderground v.1.15,2013-06-15 20:38:00,
2013-06-15 16:43:00,85.7,59.3,29.99,WSW,250,3.0,9.0,41,0.00,,,0.00,693,Wunderground v.1.15,2013-06-15 20:43:00,
2013-06-15 16:48:00,85.8,58.7,29.99,West,261,6.0,7.0,40,0.00,,,0.00,687,Wunderground v.1.15,2013-06-15 20:48:00,
2013-06-15 16:53:00,85.7,59.3,29.99,WSW,246,4.0,7.0,41,0.00,,,0.00,675,Wunderground v.1.15,2013-06-15 20:53:00,
2013-06-15 16:58:00,86.8,58.9,29.99,WSW,256,6.0,8.0,39,0.00,,,0.00,664,Wunderground v.1.15,2013-06-15 20:58:00,
2013-06-15 17:03:00,86.5,57.9,29.99,WSW,247,4.0,9.0,38,0.00,,,0.00,654,Wunderground v.1.15,2013-06-15 21:03:00,
2013-06-15 17:08:00,86.3,58.4,29.99,WSW,248,6.0,6.0,39,0.00,,,0.00,640,Wunderground v.1.15,2013-06-15 21:08:00,
2013-06-15 17:13:00,86.6,59.4,29.99,West,275,8.0,8.0,40,0.00,,,0.00,624,Wunderground v.1.15,2013-06-15 21:13:00,
2013-06-15 17:18:00,87.0,59.0,29.99,WNW,299,5.0,7.0,39,0.00,,,0.00,591,Wunderground v.1.15,2013-06-15 21:18:00,
2013-06-15 17:23:00,87.0,59.8,29.99,SW,232,8.0,10.0,40,0.00,,,0.00,594,Wunderground v.1.15,2013-06-15 21:23:00,
2013-06-15 17:28:00,86.5,60.0,29.99,WSW,254,4.0,6.0,41,0.00,,,0.00,584,Wunderground v.1.15,2013-06-15 21:28:00,
2013-06-15 17:33:00,86.6,59.4,29.99,SW,233,5.0,9.0,40,0.00,,,0.00,564,Wunderground v.1.15,2013-06-15 21:33:00,
2013-06-15 17:39:00,86.4,59.9,30.00,SW,226,6.0,8.0,41,0.00,,,0.00,468,Wunderground v.1.15,2013-06-15 21:39:00,
2013-06-15 17:44:00,86.1,59.6,29.99,West,259,1.0,8.0,41,0.00,,,0.00,524,Wunderground v.1.15,2013-06-15 21:44:00,
2013-06-15 17:49:00,86.2,59.0,29.99,West,261,5.0,9.0,40,0.00,,,0.00,531,Wunderground v.1.15,2013-06-15 21:49:00,
2013-06-15 17:54:00,86.2,59.0,29.99,WNW,285,2.0,11.0,40,0.00,,,0.00,504,Wunderground v.1.15,2013-06-15 21:54:00,
2013-06-15 17:59:00,86.4,59.2,29.99,WNW,287,2.0,7.0,40,0.00,,,0.00,450,Wunderground v.1.15,2013-06-15 21:59:00,
2013-06-15 18:04:00,85.9,59.5,29.98,SW,234,3.0,7.0,41,0.00,,,0.00,497,Wunderground v.1.15,2013-06-15 22:04:00,
2013-06-15 18:09:00,85.7,59.3,29.98,WSW,244,2.0,5.0,41,0.00,,,0.00,482,Wunderground v.1.15,2013-06-15 22:09:00,
2013-06-15 18:14:00,85.9,61.5,29.98,SSW,194,3.0,6.0,44,0.00,,,0.00,462,Wunderground v.1.15,2013-06-15 22:14:00,
2013-06-15 18:19:00,85.7,60.6,29.98,West,265,3.0,5.0,43,0.00,,,0.00,165,Wunderground v.1.15,2013-06-15 22:19:00,
2013-06-15 18:24:00,85.6,61.2,29.98,WNW,292,2.0,6.0,44,0.00,,,0.00,417,Wunderground v.1.15,2013-06-15 22:24:00,
2013-06-15 18:29:00,85.5,61.1,29.98,WNW,296,5.0,5.0,44,0.00,,,0.00,383,Wunderground v.1.15,2013-06-15 22:29:00,
2013-06-15 18:34:00,85.7,60.0,29.98,WSW,245,6.0,7.0,42,0.00,,,0.00,366,Wunderground v.1.15,2013-06-15 22:34:00,
2013-06-15 18:39:00,85.3,60.3,29.98,WSW,247,7.0,7.0,43,0.00,,,0.00,357,Wunderground v.1.15,2013-06-15 22:39:00,
2013-06-15 18:44:00,85.1,60.1,29.97,SW,236,5.0,7.0,43,0.00,,,0.00,334,Wunderground v.1.15,2013-06-15 22:44:00,
2013-06-15 18:49:00,84.8,59.8,29.97,SW,223,7.0,8.0,43,0.00,,,0.00,320,Wunderground v.1.15,2013-06-15 22:49:00,
2013-06-15 18:54:00,84.5,60.8,29.97,WSW,240,6.0,8.0,45,0.00,,,0.00,295,Wunderground v.1.15,2013-06-15 22:54:00,
2013-06-15 18:59:00,84.3,60.0,29.97,West,261,5.0,6.0,44,0.00,,,0.00,283,Wunderground v.1.15,2013-06-15 22:59:00,
2013-06-15 19:04:00,84.2,59.9,29.97,WSW,242,4.0,8.0,44,0.00,,,0.00,265,Wunderground v.1.15,2013-06-15 23:04:00,
2013-06-15 19:09:00,83.9,60.3,29.97,WSW,242,4.0,5.0,45,0.00,,,0.00,244,Wunderground v.1.15,2013-06-15 23:09:00,
2013-06-15 19:14:00,83.7,60.7,29.96,WSW,244,3.0,7.0,46,0.00,,,0.00,225,Wunderground v.1.15,2013-06-15 23:14:00,
2013-06-15 19:19:00,83.8,60.8,29.96,WSW,242,4.0,5.0,46,0.00,,,0.00,206,Wunderground v.1.15,2013-06-15 23:19:00,
2013-06-15 19:24:00,83.7,60.7,29.96,WSW,254,4.0,7.0,46,0.00,,,0.00,209,Wunderground v.1.15,2013-06-15 23:24:00,
2013-06-15 19:29:00,83.6,60.6,29.96,SW,233,2.0,6.0,46,0.00,,,0.00,195,Wunderground v.1.15,2013-06-15 23:29:00,
2013-06-15 19:34:00,83.4,60.4,29.96,WSW,254,4.0,6.0,46,0.00,,,0.00,179,Wunderground v.1.15,2013-06-15 23:34:00,
2013-06-15 19:39:00,83.4,61.1,29.96,WSW,253,4.0,5.0,47,0.00,,,0.00,167,Wunderground v.1.15,2013-06-15 23:39:00,
2013-06-15 19:44:00,83.0,61.3,29.96,WSW,244,3.0,6.0,48,0.00,,,0.00,151,Wunderground v.1.15,2013-06-15 23:44:00,
2013-06-15 19:49:00,82.8,61.1,29.95,WSW,238,5.0,7.0,48,0.00,,,0.00,134,Wunderground v.1.15,2013-06-15 23:49:00,
2013-06-15 19:54:00,82.7,61.0,29.95,WSW,244,4.0,7.0,48,0.00,,,0.00,116,Wunderground v.1.15,2013-06-15 23:54:00,
2013-06-15 19:59:00,82.5,61.4,29.95,WSW,243,4.0,4.0,49,0.00,,,0.00,100,Wunderground v.1.15,2013-06-15 23:59:00,
2013-06-15 20:04:00,82.2,61.7,29.95,WSW,240,2.0,6.0,50,0.00,,,0.00,86,Wunderground v.1.15,2013-06-16 00:04:00,
2013-06-15 20:09:00,82.1,61.6,29.95,WSW,248,5.0,6.0,50,0.00,,,0.00,72,Wunderground v.1.15,2013-06-16 00:09:00,
2013-06-15 20:14:00,81.8,60.8,29.95,WSW,237,4.0,7.0,49,0.00,,,0.00,46,Wunderground v.1.15,2013-06-16 00:14:00,
2013-06-15 20:19:00,81.5,61.1,29.95,WSW,237,2.0,4.0,50,0.00,,,0.00,47,Wunderground v.1.15,2013-06-16 00:19:00,
2013-06-15 20:24:00,81.3,60.9,29.95,WSW,239,3.0,5.0,50,0.00,,,0.00,40,Wunderground v.1.15,2013-06-16 00:24:00,
2013-06-15 20:29:00,81.1,61.3,29.95,WSW,241,2.0,5.0,51,0.00,,,0.00,30,Wunderground v.1.15,2013-06-16 00:29:00,
2013-06-15 20:34:00,80.9,61.6,29.95,WSW,241,5.0,7.0,52,0.00,,,0.00,23,Wunderground v.1.15,2013-06-16 00:34:00,
2013-06-15 20:39:00,80.6,61.3,29.95,WSW,238,3.0,4.0,52,0.00,,,0.00,18,Wunderground v.1.15,2013-06-16 00:39:00,
2013-06-15 20:44:00,80.3,61.6,29.95,West,266,2.0,4.0,53,0.00,,,0.00,11,Wunderground v.1.15,2013-06-16 00:44:00,
2013-06-15 20:49:00,80.0,61.3,29.95,WSW,252,1.0,4.0,53,0.00,,,0.00,7,Wunderground v.1.15,2013-06-16 00:49:00,
2013-06-15 20:54:00,79.7,61.6,29.95,SW,232,4.0,5.0,54,0.00,,,0.00,0,Wunderground v.1.15,2013-06-16 00:54:00,
2013-06-15 20:59:00,79.4,61.8,29.95,WSW,243,3.0,3.0,55,0.00,,,0.00,0,Wunderground v.1.15,2013-06-16 00:59:00,
2013-06-15 21:04:00,79.2,62.1,29.95,WSW,238,3.0,5.0,56,0.00,,,0.00,0,Wunderground v.1.15,2013-06-16 01:04:00,
2013-06-15 21:09:00,78.9,62.4,29.95,WSW,242,1.0,2.0,57,0.00,,,0.00,0,Wunderground v.1.15,2013-06-16 01:09:00,
2013-06-15 21:14:00,78.2,62.2,29.95,WSW,242,1.0,2.0,58,0.00,,,0.00,0,Wunderground v.1.15,2013-06-16 01:14:00,
2013-06-15 21:19:00,77.8,62.3,29.95,WSW,240,1.0,3.0,59,0.00,,,0.00,0,Wunderground v.1.15,2013-06-16 01:19:00,
2013-06-15 21:24:00,77.7,62.2,29.95,WSW,240,0.0,3.0,59,0.00,,,0.00,0,Wunderground v.1.15,2013-06-16 01:24:00,
2013-06-15 21:29:00,77.2,62.2,29.95,SW,235,0.0,2.0,60,0.00,,,0.00,0,Wunderground v.1.15,2013-06-16 01:29:00,
2013-06-15 21:34:00,76.8,62.3,29.96,SW,235,1.0,2.0,61,0.00,,,0.00,0,Wunderground v.1.15,2013-06-16 01:34:00,
2013-06-15 21:39:00,76.9,62.4,29.96,WSW,240,5.0,5.0,61,0.00,,,0.00,0,Wunderground v.1.15,2013-06-16 01:39:00,
2013-06-15 21:44:00,76.7,62.7,29.96,SW,236,1.0,5.0,62,0.00,,,0.00,0,Wunderground v.1.15,2013-06-16 01:44:00,
2013-06-15 21:49:00,76.5,62.5,29.96,WSW,241,3.0,4.0,62,0.00,,,0.00,0,Wunderground v.1.15,2013-06-16 01:49:00,
2013-06-15 21:54:00,76.4,62.4,29.97,West,263,2.0,4.0,62,0.00,,,0.00,0,Wunderground v.1.15,2013-06-16 01:54:00,
2013-06-15 21:59:00,76.3,62.3,29.96,WSW,243,0.0,3.0,62,0.00,,,0.00,0,Wunderground v.1.15,2013-06-16 01:59:00,
2013-06-15 22:04:00,76.2,62.7,29.97,WSW,244,0.0,3.0,63,0.00,,,0.00,0,Wunderground v.1.15,2013-06-16 02:04:00,
2013-06-15 22:09:00,76.1,62.6,29.97,WSW,248,4.0,4.0,63,0.00,,,0.00,0,Wunderground v.1.15,2013-06-16 02:09:00,
2013-06-15 22:14:00,76.0,62.5,29.98,WSW,248,2.0,4.0,63,0.00,,,0.00,0,Wunderground v.1.15,2013-06-16 02:14:00,
2013-06-15 22:19:00,76.0,62.5,29.98,WSW,237,3.0,3.0,63,0.00,,,0.00,0,Wunderground v.1.15,2013-06-16 02:19:00,
2013-06-15 22:24:00,75.6,62.6,29.98,WSW,237,2.0,3.0,64,0.00,,,0.00,0,Wunderground v.1.15,2013-06-16 02:24:00,
2013-06-15 22:29:00,75.1,62.5,29.98,SW,236,2.0,2.0,65,0.00,,,0.00,0,Wunderground v.1.15,2013-06-16 02:29:00,
2013-06-15 22:34:00,75.1,62.5,29.98,WSW,240,3.0,5.0,65,0.00,,,0.00,0,Wunderground v.1.15,2013-06-16 02:34:00,
2013-06-15 22:39:00,75.1,62.5,29.98,WSW,240,2.0,2.0,65,0.00,,,0.00,0,Wunderground v.1.15,2013-06-16 02:39:00,
2013-06-15 22:44:00,74.9,62.8,29.98,WSW,240,0.0,3.0,66,0.00,,,0.00,0,Wunderground v.1.15,2013-06-16 02:44:00,
2013-06-15 22:49:00,74.6,62.9,29.98,WSW,240,0.0,1.0,67,0.00,,,0.00,0,Wunderground v.1.15,2013-06-16 02:49:00,
2013-06-15 22:54:00,74.2,63.0,29.98,WSW,240,0.0,1.0,68,0.00,,,0.00,0,Wunderground v.1.15,2013-06-16 02:54:00,
2013-06-15 22:59:00,73.6,62.8,29.98,WSW,240,1.0,1.0,69,0.00,,,0.00,0,Wunderground v.1.15,2013-06-16 02:59:00,
2013-06-15 23:04:00,73.2,62.8,29.98,WSW,240,0.0,1.0,70,0.00,,,0.00,0,Wunderground v.1.15,2013-06-16 03:04:00,
2013-06-15 23:09:00,72.8,62.8,29.98,WSW,240,0.0,0.0,71,0.00,,,0.00,0,Wunderground v.1.15,2013-06-16 03:09:00,
2013-06-15 23:14:00,72.6,63.1,29.98,WSW,240,1.0,1.0,72,0.00,,,0.00,0,Wunderground v.1.15,2013-06-16 03:14:00,
2013-06-15 23:19:00,72.5,63.0,29.98,WSW,240,0.0,0.0,72,0.00,,,0.00,0,Wunderground v.1.15,2013-06-16 03:19:00,
2013-06-15 23:24:00,72.3,63.2,29.98,WSW,240,0.0,2.0,73,0.00,,,0.00,0,Wunderground v.1.15,2013-06-16 03:24:00,
2013-06-15 23:29:00,72.0,63.3,29.97,WSW,240,0.0,1.0,74,0.00,,,0.00,0,Wunderground v.1.15,2013-06-16 03:29:00,
2013-06-15 23:34:00,71.9,63.2,29.97,WSW,240,0.0,1.0,74,0.00,,,0.00,0,Wunderground v.1.15,2013-06-16 03:34:00,
2013-06-15 23:39:00,71.9,62.8,29.97,WSW,240,0.0,2.0,73,0.00,,,0.00,0,Wunderground v.1.15,2013-06-16 03:39:00,
2013-06-15 23:44:00,72.0,62.9,29.98,WSW,240,0.0,3.0,73,0.00,,,0.00,0,Wunderground v.1.15,2013-06-16 03:44:00,
2013-06-15 23:49:00,71.9,62.8,29.98,WSW,238,1.0,2.0,73,0.00,,,0.00,0,Wunderground v.1.15,2013-06-16 03:49:00,
2013-06-15 23:54:00,71.9,62.8,29.98,WSW,239,0.0,2.0,73,0.00,,,0.00,0,Wunderground v.1.15,2013-06-16 03:54:00,
2013-06-15 23:59:00,71.7,62.6,29.98,WSW,239,0.0,2.0,73,0.00,,,0.00,0,Wunderground v.1.15,2013-06-16 03:59:00,